This demonstration page uses our WeatherBlox Daily Observations layout. Learn more.

Hourly Observations for February 10, 2020

Temp ( °F °C ) Dew Point ( °F °C ) Humidity (%) Winds ( mph kmh ) Pressure ( in mb ) Visibility ( mi km ) Precip ( " mm )
12:54 am 00:54 Clear 21 -6.1 17 -8.3 85 85 N 3 6 30.24 1024 10 16.0934 0 0
1:54 am 01:54 Clear 22 -5.6 16 -8.9 78 78 Calm 30.23 1024 10 16.0934 0 0
2:54 am 02:54 Clear 19 -7.2 15 -9.4 84 84 Calm 30.23 1024 10 16.0934 0 0
3:54 am 03:54 Clear 19 -7.2 13 -10.6 77 77 Calm 30.22 1023 10 16.0934 0 0
4:54 am 04:54 Clear 19 -7.2 15 -9.4 84 84 Calm 30.22 1023 10 16.0934 0 0
5:54 am 05:54 Clear 19 -7.2 16 -8.9 88 88 SSE 3 6 30.2 1023 10 16.0934 0 0
6:54 am 06:54 Clear 20 -6.7 15 -9.4 81 81 Calm 30.21 1023 10 16.0934 0 0
7:54 am 07:54 Sunny 19 -7.2 16 -8.9 88 88 S 3 6 30.23 1024 10 16.0934 0 0
8:54 am 08:54 Sunny 22 -5.6 18 -7.8 85 85 SSE 3 6 30.24 1024 10 16.0934 0 0
9:54 am 09:54 Sunny 30 -1.1 23 -5 75 75 SSW 9 15 30.24 1024 10 16.0934 0 0
10:54 am 10:54 Sunny 33 0.6 21 -6.1 61 61 SSW 14 22 30.24 1024 10 16.0934 0 0
11:54 am 11:54 Sunny 36 2.2 21 -6.1 55 55 SW 12 19 30.23 1024 10 16.0934 0 0
12:54 pm 12:54 Sunny 40 4.4 22 -5.6 49 49 W 14 22 30.18 1022 10 16.0934 0 0
1:54 pm 13:54 Sunny 42 5.6 23 -5 47 47 W 13 20 30.15 1021 10 16.0934 0 0
2:54 pm 14:54 Sunny 44 6.7 22 -5.6 41 41 W 15 24 30.13 1020 10 16.0934 0 0
3:54 pm 15:54 Sunny 45 7.2 23 -5 42 42 WNW 13 20 30.12 1020 10 16.0934 0 0
4:54 pm 16:54 Sunny 44 6.7 21 -6.1 40 40 NW 9 15 30.16 1021 10 16.0934 0 0
5:54 pm 17:54 Sunny 40 4.4 21 -6.1 47 47 NW 5 7 30.18 1022 10 16.0934 0 0
6:54 pm 18:54 Clear 35 1.7 21 -6.1 57 57 NNW 6 9 30.21 1023 10 16.0934 0 0
7:54 pm 19:54 Clear 28 -2.2 21 -6.1 75 75 NNW 5 7 30.24 1024 10 16.0934 0 0
8:54 pm 20:54 Clear 27 -2.8 20 -6.7 75 75 N 8 13 30.24 1024 10 16.0934 0 0
9:54 pm 21:54 Clear 22 -5.6 18 -7.8 85 85 N 7 11 30.26 1025 10 16.0934 0 0
10:54 pm 22:54 Clear 24 -4.4 19 -7.2 81 81 NNE 5 7 30.29 1026 10 16.0934 0 0
11:54 pm 23:54 Clear 27 -2.8 20 -6.7 75 75 Calm 30.31 1027 10 16.0934 0 0

Powered by AerisWeather